Weather Service Report


513 
ASUS41 KAKQ 180114
RWRAKQ

REGIONAL WEATHER ROUNDUP
NATIONAL WEATHER SERVICE WAKEFIELD VA
800 PM EST TUE JAN 17 2017

Note: "fair" indicates few or no clouds below 12,000 feet with no
significant weather and/or obstructions to visibility. * = Denotes
station may not report precipitation (e.g., rain,snow,etc.),
thunder or fog.

VAZ042-051-052>054-056-180200-
NORTHERN VIRGINIA
  
CITY           SKY/WX    TMP DP  RH WIND       PRES   REMARKS
WASH NATIONAL  DRIZZLE   49  48  97 NE3       29.96S FOG              
DULLES         CLOUDY    52  50  93 S3        29.95S FOG              
FORT BELVOIR   CLOUDY    50  48  93 CALM      29.95S FOG              
QUANTICO       CLOUDY    56  54  93 SW7       29.97R                  
FREDERICKSBRG* MOCLDY    57  56  97 SW12G20   29.96S                  
STAFFORD*      CLOUDY    55  54  96 SW10      30.00S                  
WARRENTON      CLOUDY    55  50  84 SW6       29.95R                  
CULPEPER*      CLOUDY    54  52  93 SW10      29.96F                  
MANASSAS*      CLOUDY   N/A N/A N/A SW5       29.96S FOG              
LEESBURG*      NOT AVBL                                               
WINCHESTER     FOG       41  41 100 CALM      29.91F VSB 1/4          
FRONT ROYAL*   MOCLDY    45  45 100 CALM      29.91S                  
LURAY*         FAIR      55  54  94 SW12      29.92F                  
$$

VAZ048-049-060>072-079>083-180200-
CENTRAL AND SOUTH CENTRAL VIRGINIA
  
CITY           SKY/WX    TMP DP  RH WIND       PRES   REMARKS
RICHMOND       CLOUDY    56  53  90 SW13      30.02S                  
CHESTERFIELD*  FAIR      57  39  51 SW8       30.03F                  
PETERSBURG*    CLOUDY    57  54  88 SW7       30.04S                  
HANOVER        CLOUDY    57  51  80 SW10      30.02F                  
TAPPAHANNOCK*  CLOUDY    56  54  91 S8        30.00S                  
QUINTON*       CLOUDY    56  55  98 SW8G18    30.01F                  
CHARLOTTSVILLE PTCLDY    54  51  90 S9        29.97S                  
GORDONSVILLE*  CLOUDY    55  52  92 SW14G20   29.97S                  
ORANGE*          N/A     55  54  94 S12G17    29.99F                  
LOUISA*        CLOUDY    59  55  88 SW7G16    29.97F                  
BUMPASS*       CLOUDY    56  55  94 SW10G17   29.99S                  
FARMVILLE*     CLOUDY    58  56  90 SW9       30.01F                  
CREWE*         CLOUDY    56  56 100 SW7       30.03F                  
FORT PICKETT*  FAIR      56  52  88 SW12      30.03F                  
CHASE CITY*    MOCLDY    55  54  94 SW6       30.04F                  
CLARKSVILLE*   MOCLDY    55  55 100 SW8       30.05F                  
SOUTH HILL*    MOCLDY    56  55  98 SW10      30.11S                  
LAWRENCEVILLE* FAIR      56  55  94 MISG      30.05S                  
EMPORIA*       LGT RAIN  55  54  94 S5        30.07S                  
$$

VAZ088>098-180200-
SOUTHEAST VIRGINIA
  
CITY           SKY/WX    TMP DP  RH WIND       PRES   REMARKS
NORFOLK        CLOUDY    59  53  80 SW13      30.04R                  
VIRGINIA BEACH CLOUDY    58  52  80 SW12      30.04S                  
NORFOLK NAVAL  CLOUDY    60  53  77 SW10      30.05S                  
WEST POINT*    CLOUDY    56  53  88 SW6       30.03F                  
SALUDA*        CLOUDY    56  54  91 S9G16     30.00F                  
NEWPORT NEWS   CLOUDY    56  53  90 SW8       30.03F                  
LANGLEY AFB    MOCLDY    58  54  88 SW10      30.02F                  
FORT EUSTIS    LGT RAIN  55  52  88 VRB3      30.01S                  
WILLIAMSBURG*  PTCLDY    59  54  82 SW6       30.04F                  
HR EXEC AP*    FAIR      59  52  77 SW8       30.03S                  
FRANKLIN*      LGT RAIN  57  53  84 SW8       30.06S                  
US460-WAKEFLD  LGT RAIN  57  54  89 S6        30.04S                  
$$

VAZ020-022-025-037-045-180200-
WEST CENTRAL AND SOUTHWEST VIRGINIA
  
CITY           SKY/WX    TMP DP  RH WIND       PRES   REMARKS
STAUNTON*      CLOUDY    54  50  86 S7        29.97F                  
WAYNESBORO*    MOCLDY    56  51  81 SW9       29.96F                  
HOT SPRINGS VA LGT RAIN  54  54 100 W20       29.99S VSB 1/4          
LYNCHBURG      CLOUDY    54  52  93 SW8       30.03F                  
DANVILLE       CLOUDY    54  54 100 SW5       30.06F FOG              
SOUTH BOSTON*  MOCLDY    56  55  95 SW7       30.06S                  
MARTINSVILLE   CLOUDY    53  51  95 CALM      30.09F FOG              
ROANOKE        CLOUDY    52  51  97 NW3       30.04F                  
BLACKSBURG     CLOUDY    54  52  94 S6        30.06F                  
DUBLIN*        CLOUDY    56  54  94 S9        30.05F                  
MARION*        RAIN      56  55  95 W16G22    30.07F                  
HILLSVILLE*    CLOUDY    54  53  97 CALM      30.05S                  
RICHLANDS*     LGT RAIN N/A N/A N/A SW15G26   30.04F                  
WISE*          RAIN      59  59 100 SW16G29   30.05S                  
ABINGDON*      LGT RAIN  58  58 100 W9        30.06F                  
$$

MDZ021>025-VAZ099-100-180200-
SOUTHERN MARYLAND AND THE DELMARVA PENINSULA
  
CITY           SKY/WX    TMP DP  RH WIND       PRES   REMARKS
PATUXENT RIVER CLOUDY    55  52  89 SW10      29.95S                  
BAY BRIDGE APT CLOUDY    41  41 100 CALM      29.97F FOG              
LEONARDTOWN    CLOUDY    54  50  87 SW14      29.97S                  
DOVER          CLOUDY    44  44 100 SE3       29.97R FOG              
GEORGETOWN     CLOUDY    50  48  93 S5        29.98F FOG              
EASTON         CLOUDY    52  48  87 S5        29.99S                  
CAMBRIDGE      CLOUDY    46  46 100 S7        29.96F                  
SALISBURY      CLOUDY    53  51  93 SW10      29.97F                  
OCEAN CITY     CLOUDY    47  47 100 SW7       29.99F                  
WALLOPS ISLAND CLOUDY    47  47 100 S10       29.99F                  
ACCOMACK*      MOCLDY    57  53  87 SW10      30.01F                  
$$

NCZ012>017-030>032-180200-
NORTH CENTRAL AND EASTERN NORTH CAROLINA
  
CITY           SKY/WX    TMP DP  RH WIND       PRES   REMARKS
ROANOKE RAPIDS LGT RAIN  55  54  94 SW9       30.07S                  
RALEIGH        CLOUDY    59  55  87 SW8       30.11R                  
ELIZABETH CITY MOCLDY    57  54  89 S8        30.08F                  
AHOSKIE*       LGT RAIN  57  55  90 SW6       30.07S                  
EDENTON*       DRIZZLE   59  56  89 CALM      30.08F                  
CURRITUCK*     MOCLDY    59  56  91 SW7       30.07S                  
KILL DEVIL HLS NOT AVBL                                               
MANTEO         MOCLDY    53  53  99 SW12      30.09F                  
CAPE HATTERAS  LGT RAIN  60  57  89 SW6       30.11F FOG              
TARBORO*       NOT AVBL                                               
GOLDSBORO      CLOUDY    60  60  97 S7        30.10S                  
WASHINGTON     CLOUDY    61  55  79 SW9       30.11S                  
GREENVILLE     DRIZZLE   61  57  88 SW10      30.11F                  
NEW BERN       CLOUDY    62  56  80 SW8       30.15R                  
WILMINGTON     PTCLDY    61  57  87 S9        30.16R                  
$$

VAZ048-180200-
ELSEWHERE
  
CITY           SKY/WX    TMP DP  RH WIND       PRES   REMARKS
HARRISBURG PA  CLOUDY    40  40 100 CALM      29.96F FOG              
BALTIMORE      FOG       44  44 100 CALM      29.96F VSB 3/4          
ANNAPOLIS      CLOUDY    45  44  97 CALM      29.96F FOG              
ANDREWS AFB    CLOUDY    54  52  94 W6        29.95R                  
PHILADELPHIA   LGT RAIN  43  42  97 NE3       30.00F FOG              
HENDERSON NC   LGT RAIN  54  52  95 SW9       30.07S                  
GREENSBORO     CLOUDY    57  56  96 SW10      30.06F                  
ROCKY MOUNT    MOCLDY    59  56  89 S10       30.10R                  
$$

VAZ100-180200-
MARINE
  
STATION/POSITION TIME  TEMP    WIND        PRES    WAVE   SWELL
                       AIR SEA DIR/SP/G            HT/PER HT/PER
                 (UTC) (F)     (DEG/KT/KT) (MB)    (FT/S) (FT/S)
CAPE MAY NJ      0048   44 40  140/  8/ 11 1014.6F
LEWES DE         0048   48 41  200/  4/ 10 1015.0F
OCEAN-CITY-INLET 0048   44 43  220/ 11/ 12 1016.0F
WACHAPREAGUE VA  0048   49 47  210/  7/ 10 1016.2F
THOMAS POINT MD  0100   43 39  280/  2/  2   N/A
GOOSES REEF MD   0050   43     180/ 10/ 10 1014.8F
COVE POINT MD    0048   48     170/  8/  9 1014.9S
SOLOMONS ISLAND  0042   52 41  220/  9/ 12   N/A
BISHOPS HEAD MD  0048   49 41  200/ 14/ 16 1014.9F
PINEY POINT MD   0048          240/ 11/ 16   N/A
POTOMAC MD       0050   50     240/ 14/ 17 1013.9F
CAMBRIDGE MD     0048   50 39  180/  4/  7 1013.7F
LEWISETTA VA     0048   56 43  240/ 14/ 18 1014.5F
RAPPAHANNOCK LGT 0048          190/ 13/ 14 1016.9S
STINGRAY PT      0050   44     150/  4/  6 1016.7F
YORK RVR RNG VA  0048   55     230/ 10/ 11 1016.0F
YORKTOWN VA      0048   58 43  220/ 11/ 14 1016.1F
JAMESTOWN VA     0050   55     230/  4/  6   N/A
DOMINION TERM VA 0048   53     230/  7/  8 1017.3R
KIPTOPEKE VA     0048      43  220/  9/ 10   N/A
CHES BAY BRIDGE  0048   57 43  230/ 14/ 15 1017.0R
CAPE HENRY VA    0048   60     220/ 10/ 13   N/A
WILLOUBY STN VA  0048   56     230/ 12/ 12 1018.1R
S CRANEY ISL VA  0048   58     220/  8/ 12 1017.2R
CAPE HENRY BUOY  0042      47                N/A     2/ 9
OFFSHORE WE BUOY 0051      49                N/A     2/ 8
64NM E OF VA BCH 0050   58 56  210/ 14/ 17 1017.7F   3/ 4   2/ 8
DUCK PIER NC     0048   56 44  200/  9/ 12 1018.0F
44100 DUCK FRF   0005      47                N/A     2/10
44056 DUCK FRF   0030      45                N/A     2/ 8
OREGON INLET NC  0042   53 48  210/ 14/ 16 1019.1F
HATTERAS NC      0048   62 53  220/  8/ 11 1019.3F
DIAMOND SHLS NC  0050   70 73  230/ 17/ 21 1019.6F   3/ 4   2/ 9
CAPE LOOKOUT NC  0000   64     210/  9/ 12 1020.7F
$$
  

Return to Home page


Western Regional Climate Center, wrcc@dri.edu